Eutawville, SC (29048)

11:20 AM EDT on August 30, 2015 (GMT -0400)
Dingle Pond | | Change Station
CLOSE
Current Station
Personal Weather Station
Location: Summerton, SC
Elevation: 95 ft
Nearby Weather Stations

Elev 95 ft 33.51 °N, 80.41 °W | Updated 22 seconds ago

Mostly Cloudy
Mostly Cloudy
77.2 °F
Feels Like 79 °F
N
2.2
Wind Variable Wind from NE
Gusts 6.0 mph

Today
High -- | Low -- °F
--% Chance of Precip.
Yesterday
High -- | Low -- °F
Precip. -- in
6:53 AM 7:49 PM
Full, 99% visible
Pressure 30.15 in
Visibility 10.0 miles
Clouds Scattered Clouds 7000 ft
Scattered Clouds 9000 ft
Heat Index 79 °F
Dew Point 74 °F
Humidity 89%
Rainfall 0.02 in
Snow Depth Not available.
UV 6 out of 12
Pollen 2.80 out of 12
Air Quality Not available.
Flu Activity Not available.
METAR KMNI 301515Z 03005KT 10SM SCT070 SCT090 25/21 A3015 RMK AO2 PWINO
Pressure 30.15 in
Visibility 10.0 miles
Clouds Scattered Clouds 7000 ft
Scattered Clouds 9000 ft
Heat Index 79 °F
Dew Point 74 °F
Humidity 89%
Rainfall 0.02 in
Snow Depth Not available.
UV 6 out of 12
Pollen 2.80 out of 12
Air Quality Not available.
Flu Activity Not available.
METAR KMNI 301515Z 03005KT 10SM SCT070 SCT090 25/21 A3015 RMK AO2 PWINO

10-Day Weather Forecast

×

Almanac

Astronomy

Aug. 30, 2015 Rise Set
Actual Time
Civil Twilight
Nautical Twilight
Astronomical Twilight
Moon
Length of Visible Light
Length of Day
Tomorrow will be .
, % of the Moon is Illuminated

Today's Extremes

State Highs State Lows

Community

WunderPhotos

Upload Photos

1,850,995 photos uploaded!

WunderBlogs® & News

Nearby

Air Quality

  Air Quality AQ Index Pollutant
Not available.

Snow Depth

Station Depth Elevation

Earthquake Activity

City Distance Mag. Time & Date
Minimum magnitude displayed is 2.5.

Coastal Water Temperatures

Place Temperature

Stations

Nearby Weather Stations

Station Location Temp. Windchill Dew Point Humidity Wind Precip. Elev Updated Type